SL-16 DEB, 22578

Orbit data source: Space-Track

SL-16 DEB, 22578 is space debris in LEO originally from a launch on Fri, 26 Mar 1993 UTC launched from the Tyuratam Missile And Space Complex (TTMTR). Debris objects in space refer to the collection of defunct objects orbiting the Earth. Examples of debris include non-operational satellites, rocket bodies, and fragments generated from explosions, collisions, or faulty payload assembly.

Loading next visibility...
Identifier
22578, 1993-016F
Orbit
LEO
Country
Flag of CISCIS
Related business
Manufacturer
Yuzhnoe
Mission
Spacecraft
Bus & Motor
SEP MOTOR COVER, Unknown motor
Mass
~0 kg wet, ~1 kg dry
Launch date (UTC)
1993-03-26 (33 years ago)
Launch vehicle
Unknown
Launch site
Tyuratam Missile And Space Complex (TTMTR)
Object type
Payload
Rocket body
Debris
Shape & HBR
CONE, 0.5 m
Radar Cross Section
Medium (>0.1 m² and <1 m²)

Expand to show TLE details & history
Last TLE update: 20 hours ago

TLE from 20 hours ago
0 SL-16 DEB
1 22578U 93016F   26255.14182174  .00000263  00000-0  72176-4 0  9999
2 22578  71.0636 311.8051 0104459  82.7856 305.7905 14.53277486767946
Epoch: 2026-09-12T03:24Z
TLE epoch observation values (Epoch: 2026-09-12T03:24:13.398Z)
Latitude
26.03284°
Longitude
-80.81138°
Altitude
674.823 km
Speed
7.545 km/s
True Right ascension
21h 25m 35s
True Declination
25° 53' 45"
Sunlit
Object was in full shadow at epoch
Visualization orbit readout
Latitude
Unknown
Longitude
Unknown
Altitude
Unknown
Speed
Unknown
Apparent Right ascension
Unknown
Apparent Declination
Unknown
Sunlit
N/A
Visualization observer readout
Local Sidereal Time
16:04:59
Azimuth
Unknown
Elevation
Unknown
Doppler factor
Unknown
Orbital elements
Apogee altitude
786.916 km
Perigee altitude
638.773 km
Semi-major axis
7,090.982 km
Eccentricity
0.01045
Inclination
71.0636°
RAAN
311.8051°
Arg. of periapsis
82.7856°
True anomaly
304.81211°
Mean anomaly
305.7905°
Eccentric anomaly
305.30205°
Mean motion
3.63483 °/min
Orbital period
99.04 mins
BSTAR
0.000072176
Loading maneuver chart data...
Computing Atmospheric mass density...
Loading historical data...
Loading historical data...
Loading historical data...
Loading historical data...
Loading historical data...
Loading historical data...
Loading historical data...

Documentation

Showing up to 5 results
|